Regional Weather Roundup
Issued by NWS

Home | Current Version | Previous Version | Text Only | Print | Product List | Glossary Off
Versions: 1 2 3 4 5 6 7 8 9 10 11 12 13 14 15 16 17 18 19 20 21 22 23 24 25 26 27 28 29 30 31 32 33 34 35 36 37 38 39 40 41 42 43 44 45 46 47 48 49 50

904
ASUS43 KFSD 112302
RWRSD

WEATHER ROUNDUP FOR SOUTH DAKOTA
NATIONAL WEATHER SERVICE SIOUX FALLS SD
500 PM CST THU FEB 11 2016

NOTE: "FAIR" INDICATES FEW OR NO CLOUDS BELOW 12,000 FEET WITH NO
SIGNIFICANT WEATHER AND/OR OBSTRUCTIONS TO VISIBILITY.


SDZ001>005-009-010-012>017-120000-
NORTHWEST AND NORTH CENTRAL SOUTH DAKOTA

CITY           SKY/WX    TMP DP  RH WIND       PRES   REMARKS
BUFFALO          N/A     36  29  75 N20       30.05R
FAITH            N/A     32  27  81 NE8       30.09R WCI  25
MOBRIDGE       LGT SNOW  29  25  85 N7        30.12R FOG     WCI  22
$$

SDZ012>016-024>037-041>051-057-063-072>074-120000-
SOUTHWEST AND SOUTH CENTRAL SOUTH DAKOTA

CITY           SKY/WX    TMP DP  RH WIND       PRES   REMARKS
RAPID CTY ARPT MOSUNNY   52  30  43 N24G37    30.05
PIERRE         CLOUDY    30  25  81 E7        30.11R WCI  23
CUSTER         MOSUNNY   45  19  35 NW23G38   30.08R
PHILIP         CLOUDY    42  32  67 N7        30.07R
PINE RIDGE     CLOUDY    54  27  35 N10G21    30.06R
WINNER         CLOUDY    33  26  75 NE12      30.07R WCI  24
$$

SDZ004>011-016>023-039-040-120000-
NORTHEAST SOUTH DAKOTA

CITY           SKY/WX    TMP DP  RH WIND       PRES   REMARKS
ABERDEEN       CLOUDY    23  16  74 N5        30.18R WCI  17
WATERTOWN      FLURRIES  18  13  80 SW6       30.12R WCI  10
BROOKINGS      LGT SNOW  17  13  84 S6        30.14R FOG     WCI   9
SISSETON         N/A     17  12  80 CALM      30.18R
$$

SDZ017-020-022-023-036>040-048>070-120000-
SOUTHEAST SOUTH DAKOTA

CITY           SKY/WX    TMP DP  RH WIND       PRES   REMARKS
SIOUX FALLS    LGT SNOW  18  13  80 SE3       30.16R VSB 1
HURON          LGT SNOW  23  19  85 SE5       30.16R FOG     WCI  17
CHAMBERLAIN    CLOUDY    26  24  92 NE7       30.11R WCI  18
MITCHELL       LGT SNOW  21  18  88 SE8       30.17R FOG     WCI  11
YANKTON        CLOUDY    21  18  86 SE6       30.15R WCI  14
$$

ABBREVIATIONS USED IN REMARKS
   TC - TEMPERATURE IN CELSIUS
  WCI - WIND CHILL INDEX
   HX - HEAT INDEX
  VSB - VISIBILITY





USA.gov is the U.S. government's official web portal to all federal, state and local government web resources and services.